Regional Weather Roundup
Issued by NWS

Home | Current Version | Previous Version | Text Only | Print | Product List | Glossary Off
Versions: 1 2 3 4 5 6 7 8 9 10 11 12 13 14 15 16 17 18 19 20 21 22 23 24 25 26 27 28 29 30 31 32 33 34 35 36 37 38 39 40 41 42 43 44 45 46 47 48 49 50

000
ASUS45 KTFX 100110
RWRMT
MONTANA REGIONAL WEATHER ROUNDUP
NATIONAL WEATHER SERVICE GREAT FALLS MT
600 PM MST FRI DEC 09 2016

NOTE: "FAIR" INDICATES FEW OR NO CLOUDS BELOW 12000 FEET WITH NO
SIGNIFICANT WEATHER AND/OR OBSTRUCTIONS TO VISIBILITY.

MTZ001>007-043-100200-
WEST OF THE DIVIDE

CITY           SKY/WX    TMP DP  RH WIND       PRES   REMARKS
KALISPELL      CLOUDY     9   3  77 N6        30.08F WCI  -1
MISSOULA       CLOUDY    16  11  80 W6        30.05F WCI   7
BUTTE          LGT SNOW  18  13  80 SE5       29.93F
MULLAN PASS    CLOUDY    18  16  92 SW5       29.82F FOG
ANACONDA         N/A     12   5  73 NE6       29.94S WCI   3
DEER LODGE       N/A     12   7  79 CALM      29.99F
EUREKA           N/A      5   1  85 CALM      30.16F
HAMILTON         N/A     16   9  73 CALM      30.02S
LIBBY            N/A     12   7  79 CALM      30.10F
RONAN            N/A     14   9  81 MISG      30.07F
$$

MTZ008-052>055-100200-
SOUTHWEST MONTANA

CITY           SKY/WX    TMP DP  RH WIND       PRES   REMARKS
BOZEMAN        CLOUDY     9   2  73 CALM      30.02F
DILLON         LGT SNOW  13   8  81 CALM      29.95F
W YELLOWSTONE  CLOUDY    23  21  93 S14       29.96F FOG     WCI  11
ENNIS          CLOUDY    23  18  80 VRB5      29.97F
THREE FORKS      N/A      9 -44   7 CALM      30.03F
$$

MTZ009-010-012-014-046-048-049-054-100200-
EAST SLOPES AND CENTRAL MONTANA

CITY           SKY/WX    TMP DP  RH WIND       PRES   REMARKS
CUT BANK       MOCLDY    -5  -9  83 E8        30.09F WCI -20
GREAT FALLS    CLOUDY    -5  -8  87 N6        30.12F WCI -18
MALMSTROM AFB  CLOUDY    -3  -6  87 N3        30.14F
HELENA         CLOUDY     6  -2  69 CALM      30.08F
AUGUSTA          N/A     -8 -11  89 SW2       30.03F
BOWMANS CRNR     N/A     -8 -11  84 NE6       30.03F WCI -21
CHOTEAU          N/A     -4  -9  77 MISG      30.10F
CONRAD           N/A     -4  -8  83 NE3       30.11F
FAIRFIELD        N/A     -5  -9  80 SE3       30.09F
POWER          MOCLDY    -5  -9  84 E5        30.10F
RAYNESFORD     MOCLDY    -1  -6  78 SE10      30.08F WCI -17
ULM            MOCLDY    -6 -12  77 NW6G40    30.13F WCI -19
$$

MTZ011-013-016-021-045-047-050-051-100200-
NORTH CENTRAL MONTANA

CITY           SKY/WX    TMP DP  RH WIND       PRES   REMARKS
HAVRE          CLOUDY     4  -1  80 E12       30.26F WCI -12
LEWISTOWN      CLOUDY     2  -3  80 E12       30.08F WCI -15
N BAR RANCH    CLOUDY     3  -4  72 SE6       30.09F WCI  -8
CHINOOK          N/A      3  -2  78 E13G20    30.29F WCI -14
DENTON         FLURRIES   3   0  84 MISG      30.09F
FORT BENTON      N/A      3  -2  78 N6        30.22F WCI  -8
GEYSER         FLURRIES  -1  -5  84 NE3       30.08F
GRASS RANGE    FLURRIES   4   1  85 E9        30.09F WCI -10
JUDITH GAP     FLURRIES   1  -3  83 MISG      30.05F
ROY            FLURRIES   4   1  88 MISG      30.13F
STANFORD       MOCLDY    -4  -9  81 W3        30.04F
WINIFRED       FLURRIES   4   1  88 MISG      30.11F
$$

MTZ017>020-022>027-061-062-100200-
NORTHEAST MONTANA

CITY           SKY/WX    TMP DP  RH WIND       PRES   REMARKS
GLASGOW        CLOUDY    -4  -9  79 E8        30.40S WCI -19
JORDAN           N/A      1  -4  79 SE7       30.32F WCI -12
SIDNEY         CLOUDY   -10 -15  78 S3        30.50S
WOLF POINT     CLOUDY    -8 -14  74 E6        30.48S WCI -21
PLENTYWOOD       N/A     -9 -15  77 SE5       30.45F
POPLAR           N/A     -8 -13  77 E5        30.49S
$$

MTZ028>42-056>058-100200-
SOUTHCENTRAL AND SOUTHEAST MONTANA

CITY           SKY/WX    TMP DP  RH WIND       PRES   REMARKS
BAKER          CLOUDY    -1  -6  79 E10       30.34F WCI -17
BILLINGS       CLOUDY     5   1  83 MISG      30.16F
LIVINGSTON     LGT SNOW   6   1  80 E6        30.04F VSB 1   WCI  -4
MILES CITY     CLOUDY     4  -3  73 E8        30.33F WCI  -9
BIG TIMBER     CLOUDY     5   1  85 E3        30.09F HAZE
FORSYTH          N/A      5   0  78 E10       30.30S WCI -10
HARLOWTON      MOCLDY     2  -2  83 E7        30.08F WCI -10
LAUREL           N/A      6  -3  66 N5        30.11F
$$

REGIONAL REPORTS...DAKOTAS

CITY           SKY/WX    TMP DP  RH WIND       PRES   REMARKS
WILLISTON      CLOUDY   -12 -16  82 CALM      30.50F
MINOT          CLOUDY   -10 -16  74 W8        30.51F WCI -26
DICKINSON      CLOUDY    -9 -16  71 CALM      30.39F
BEACH          CLOUDY    -8 -11  84 SE3       30.41F
CROSBY           N/A    -17 -22  76 CALM      30.51F
TIOGA            N/A    -13 -17  84 W6        30.46F WCI -27
WATFORD CITY     N/A    -13 -18  77 CALM      30.48F
BISMARCK       PTCLDY    -7 -12  79 NW3       30.54S
GRAND FORKS    MOCLDY    -9 -14  78 NW5       30.57R
FARGO          MOCLDY     0  -7  72 NW9       30.57R WCI -15
BUFFALO SD       N/A     -4  -8  83 E10       30.25F WCI -21
RAPID CITY     CLOUDY     1  -4  79 E7        30.33F WCI -12
$$

REGIONAL REPORTS...WYOMING/IDAHO/WASHINGTON

CITY           SKY/WX    TMP DP  RH WIND       PRES   REMARKS
GILLETTE       CLOUDY     7   1  76 E3        30.13F
SHERIDAN       CLOUDY    11   2  67 E8        30.13F WCI  -1
BUFFALO WY     CLOUDY     6  -1  73 S8        30.06F WCI  -7
CODY           CLOUDY     9   2  73 CALM      30.03F
YELLOWSTONE LA   N/A     24  22  91 VRB3      29.96F
IDAHO FALLS    LGT SNOW  24  21  88 CALM      30.06F VSB 1
SALMON         CLOUDY    18  16  93 CALM      30.04F
BOISE          FRZ RAIN  30  29  96 NE5       30.04F FOG
SPOKANE        CLOUDY    19  16  88 NE7       29.99F WCI  10
$$

REGIONAL REPORTS...ALBERTA

CITY           SKY/WX    TMP DP  RH WIND       PRES   REMARKS
EDMONTON       CLEAR     -9 -17  70 SE8       30.31F WCI -26
CALGARY        CRYSTALS  -8 -13  77 SE14      30.10F WCI -28
LETHBRIDGE     FLURRIES  -2  -6  84 E7        30.18F WCI -16
MEDICINE HAT   MOCLDY    -2  -8  78 E5        30.31F
WATERTON GATE    N/A     -6 -11  77 E2          N/A
CARDSTON         N/A     -6 -11  77 NW1         N/A
MILK RIVER       N/A     -2  -6  84 SE6         N/A  WCI -14
ONEFOUR          N/A      0  -4  85 E10         N/A  WCI -17
$$

REGIONAL REPORTS...SASKATCHEWAN

CITY           SKY/WX    TMP DP  RH WIND       PRES   REMARKS
SWIFT CURRENT  CLOUDY    -6  -9  84 E7        30.31F WCI -20
REGINA         PTCLDY   -11 -15  84 SW2       30.48F
SASKATOON      CRYSTALS  -9 -15  77 NE3       30.51F
VAL MARIE        N/A     -6  -9  84 E5          N/A
ROCKGLEN         N/A     -4  -8  84 S5          N/A
ASSINIBOIA       N/A    -11 -17  77 S6          N/A  WCI -25
$$



USA.gov is the U.S. government's official web portal to all federal, state and local government web resources and services.